Time,TemperatureF,DewpointF,PressureIn,WindDirection,WindDirectionDegrees,WindSpeedMPH,WindSpeedGustMPH,Humidity,HourlyPrecipIn,Conditions,Clouds,dailyrainin,SoftwareType,DateUTC
2013-05-31 07:29:00,76.1,-10.3,29.71,SW,226,0.0,0.0,3,0.00,,---,0.00,VWS V14.01,2013-05-31 14:29:00,
2013-05-31 07:34:00,73.4,-12.1,29.80,West,271,0.0,0.0,3,0.00,,---,0.00,VWS V14.01,2013-05-31 14:34:00,
2013-05-31 07:39:00,73.6,-12.0,29.80,West,271,0.0,0.0,3,0.00,,---,0.00,VWS V14.01,2013-05-31 14:39:00,
2013-05-31 07:44:00,73.6,-12.0,29.80,West,271,0.0,0.0,3,0.00,,---,0.00,VWS V14.01,2013-05-31 14:44:00,
2013-05-31 07:49:00,74.1,-11.6,29.80,West,264,0.0,0.0,3,0.00,,---,0.00,VWS V14.01,2013-05-31 14:49:00,
2013-05-31 07:54:00,74.1,-11.6,29.80,West,278,0.0,0.0,3,0.00,,---,0.00,VWS V14.01,2013-05-31 14:54:00,
2013-05-31 08:00:00,75.2,-10.9,29.80,NNE,24,0.0,0.0,3,0.00,,---,0.00,VWS V14.01,2013-05-31 15:00:00,
2013-05-31 08:05:00,75.6,-10.6,29.80,NNE,27,0.0,0.0,3,0.00,,---,0.00,VWS V14.01,2013-05-31 15:05:00,
2013-05-31 08:10:00,75.6,-10.6,29.80,NNE,14,0.0,0.0,3,0.00,,---,0.00,VWS V14.01,2013-05-31 15:10:00,
2013-05-31 08:15:00,76.6,-9.9,29.80,NE,49,0.0,0.0,3,0.00,,---,0.00,VWS V14.01,2013-05-31 15:15:00,
2013-05-31 08:20:00,77.0,-9.7,29.80,NE,51,0.0,2.2,3,0.00,,---,0.00,VWS V14.01,2013-05-31 15:20:00,
2013-05-31 08:25:00,77.0,-9.7,29.80,NE,51,0.0,0.0,3,0.00,,---,0.00,VWS V14.01,2013-05-31 15:25:00,
2013-05-31 08:30:00,77.0,-9.7,29.80,NE,54,0.0,0.0,3,0.00,,---,0.00,VWS V14.01,2013-05-31 15:30:00,
2013-05-31 08:35:00,77.0,-9.7,29.80,NW,321,0.0,3.1,3,0.00,,---,0.00,VWS V14.01,2013-05-31 15:35:00,
2013-05-31 08:40:00,77.5,-9.3,29.80,NNE,22,6.3,6.3,3,0.00,,---,0.00,VWS V14.01,2013-05-31 15:40:00,
2013-05-31 08:45:00,77.5,-9.3,29.80,North,4,4.0,4.0,3,0.00,,---,0.00,VWS V14.01,2013-05-31 15:45:00,
2013-05-31 08:50:00,77.5,-9.3,29.80,NW,305,0.0,0.0,3,0.00,,---,0.00,VWS V14.01,2013-05-31 15:50:00,
2013-05-31 08:55:00,78.1,-9.0,29.80,North,357,2.2,2.2,3,0.00,,---,0.00,VWS V14.01,2013-05-31 15:55:00,
2013-05-31 09:00:00,78.1,-9.0,29.80,NE,42,3.6,3.6,3,0.00,,---,0.00,VWS V14.01,2013-05-31 16:00:00,
2013-05-31 09:05:00,78.8,-16.6,29.80,NE,42,0.0,0.0,2,0.00,,---,0.00,VWS V14.01,2013-05-31 16:05:00,
2013-05-31 09:10:00,79.0,-16.5,29.80,NE,35,0.0,0.0,2,0.00,,---,0.00,VWS V14.01,2013-05-31 16:10:00,
2013-05-31 09:15:00,79.0,-16.5,29.80,ENE,75,0.0,0.0,2,0.00,,---,0.00,VWS V14.01,2013-05-31 16:15:00,
2013-05-31 09:20:00,80.6,-15.4,29.80,North,349,4.0,4.0,2,0.00,,---,0.00,VWS V14.01,2013-05-31 16:20:00,
2013-05-31 09:25:00,80.4,-15.5,29.80,NNE,16,4.0,4.0,2,0.00,,---,0.00,VWS V14.01,2013-05-31 16:25:00,
2013-05-31 09:30:00,80.6,-15.4,29.80,NNE,25,0.0,0.0,2,0.00,,---,0.00,VWS V14.01,2013-05-31 16:30:00,
2013-05-31 09:35:00,80.6,-15.4,29.80,NNE,17,0.0,0.0,2,0.00,,---,0.00,VWS V14.01,2013-05-31 16:35:00,
2013-05-31 09:40:00,80.6,-15.4,29.80,East,98,3.6,3.6,2,0.00,,---,0.00,VWS V14.01,2013-05-31 16:40:00,
2013-05-31 09:45:00,82.0,-14.5,29.80,North,7,0.0,0.0,2,0.00,,---,0.00,VWS V14.01,2013-05-31 16:45:00,
2013-05-31 09:50:00,82.2,-14.4,29.80,East,86,4.9,4.9,2,0.00,,---,0.00,VWS V14.01,2013-05-31 16:50:00,
2013-05-31 09:55:00,82.9,-13.9,29.80,NNW,338,0.0,0.0,2,0.00,,---,0.00,VWS V14.01,2013-05-31 16:55:00,
2013-05-31 10:00:00,82.9,-13.9,29.80,North,353,0.0,0.0,2,0.00,,---,0.00,VWS V14.01,2013-05-31 17:00:00,
2013-05-31 10:05:00,82.9,-13.9,29.80,NNE,27,6.3,6.3,2,0.00,,---,0.00,VWS V14.01,2013-05-31 17:05:00,
2013-05-31 10:10:00,82.9,-13.9,29.80,ENE,70,3.6,3.6,2,0.00,,---,0.00,VWS V14.01,2013-05-31 17:10:00,
2013-05-31 10:15:00,83.7,-13.4,29.80,NNW,341,0.0,0.0,2,0.00,,---,0.00,VWS V14.01,2013-05-31 17:15:00,
2013-05-31 10:21:00,82.9,-13.9,29.80,SE,146,0.0,0.0,2,0.00,,---,0.00,VWS V14.01,2013-05-31 17:21:00,
2013-05-31 10:26:00,83.3,-13.7,29.80,East,95,4.9,4.9,2,0.00,,---,0.00,VWS V14.01,2013-05-31 17:26:00,
2013-05-31 10:31:00,83.3,-13.7,29.80,ESE,112,0.0,0.0,2,0.00,,---,0.00,VWS V14.01,2013-05-31 17:31:00,
2013-05-31 10:36:00,83.3,-13.7,29.80,SE,127,4.0,4.0,2,0.00,,---,0.00,VWS V14.01,2013-05-31 17:36:00,
2013-05-31 10:41:00,85.5,-12.3,29.80,SSE,162,0.0,0.0,2,0.00,,---,0.00,VWS V14.01,2013-05-31 17:41:00,